Weather History for Logansport, IN

Change the Weather History Date:

Saturday, August 30, 2014

  Actual Average Record
Temperature  
Mean Temperature 76 °F -  
Max Temperature 82 °F 83 °F 89 °F (2013)
Min Temperature 69 °F 62 °F 59 °F (2013)
Cooling Degree Days 10    
Growing Degree Days 26 (Base 50)    
Moisture  
Dew Point 66 °F    
Average Humidity 76    
Maximum Humidity 94    
Minimum Humidity 58    
Precipitation  
Precipitation 0.00 in - - ()
Sea Level Pressure  
Sea Level Pressure 29.95 in    
Wind  
Wind Speed 10 mph (SSW)    
Max Wind Speed 21 mph    
Max Gust Speed 26 mph    
Visibility 10 miles    
Events      
Averages and records for this station are not official NWS values.
T = Trace of Precipitation, MM = Missing Value Source: NWS Daily Summary

Daily Weather History Graph

Daily Weather History Graph

Search for Another Location

Airport:

Trip Planner

Search our weather history database for the weather conditions in past years. The results will help you decide how hot, cold, wet, or windy it might be!

Date:

Astronomy

Aug. 30, 2014 Rise Set
Actual Time 7:10 AM EDT 8:20 PM EDT
Civil Twilight 6:42 AM EDT 8:49 PM EDT
Nautical Twilight 6:08 AM EDT 9:22 PM EDT
Astronomical Twilight 5:33 AM EDT 9:57 PM EDT
Moon 11:59 AM EDT (8/30) 10:52 PM EDT (8/30)
Length of Visible Light 14h 06m
Length of Day
13h 10m
Waxing Crescent, 23% of the Moon is Illuminated
Aug 30
Waxing Crescent
Sep 2
First Quarter
Sep 8
Full
Sep 15
Last Quarter
Sep 24
New

Hourly Weather History & Observations

Time (EDT) Temp. Heat Index Dew Point Humidity Pressure Visibility Wind Dir Wind Speed Gust Speed Precip Events Conditions
12:15 AM 71.6 °F - 68.0 °F 88% 29.97 in 7.0 mi SE 5.8 mph - N/A   Clear
12:35 AM 71.6 °F - 68.0 °F 88% 29.97 in 7.0 mi SE 6.9 mph - N/A   Clear
12:55 AM 71.6 °F - 68.0 °F 88% 29.97 in 7.0 mi SSE 6.9 mph - N/A   Clear
1:15 AM 71.6 °F - 68.0 °F 88% 29.97 in 7.0 mi SSE 6.9 mph - N/A   Clear
1:35 AM 69.8 °F - 68.0 °F 94% 29.97 in 7.0 mi SSE 6.9 mph - N/A   Clear
1:55 AM 71.6 °F - 66.2 °F 83% 29.96 in 10.0 mi South 6.9 mph - N/A   Clear
2:15 AM 71.6 °F - 64.4 °F 78% 29.96 in 10.0 mi South 6.9 mph - N/A   Clear
2:35 AM 69.8 °F - 64.4 °F 83% 29.96 in 10.0 mi South 6.9 mph - N/A   Clear
2:55 AM 69.8 °F - 62.6 °F 78% 29.96 in 10.0 mi SSE 8.1 mph - N/A   Clear
3:15 AM 69.8 °F - 62.6 °F 78% 29.95 in 10.0 mi South 6.9 mph - N/A   Clear
3:35 AM 69.8 °F - 62.6 °F 78% 29.95 in 10.0 mi South 8.1 mph - N/A   Scattered Clouds
3:55 AM 69.8 °F - 62.6 °F 78% 29.95 in 10.0 mi South 8.1 mph - N/A   Scattered Clouds
4:15 AM 69.8 °F - 62.6 °F 78% 29.95 in 10.0 mi South 8.1 mph - N/A   Mostly Cloudy
4:55 AM 69.8 °F - 62.6 °F 78% 29.95 in 10.0 mi South 6.9 mph - N/A   Overcast
5:15 AM 69.8 °F - 62.6 °F 78% 29.95 in 10.0 mi South 8.1 mph - N/A   Overcast
5:35 AM 71.6 °F - 62.6 °F 73% 29.95 in 10.0 mi South 8.1 mph - N/A   Overcast
5:55 AM 71.6 °F - 62.6 °F 73% 29.95 in 10.0 mi South 6.9 mph - N/A   Overcast
6:35 AM 71.6 °F - 64.4 °F 78% 29.95 in 10.0 mi South 5.8 mph - N/A   Mostly Cloudy
6:55 AM 71.6 °F - 64.4 °F 78% 29.95 in 10.0 mi SSW 8.1 mph - N/A   Mostly Cloudy
7:15 AM 71.6 °F - 64.4 °F 78% 29.96 in 10.0 mi South 10.4 mph - N/A   Mostly Cloudy
7:35 AM 71.6 °F - 64.4 °F 78% 29.96 in 10.0 mi SSW 9.2 mph - N/A   Scattered Clouds
7:55 AM 71.6 °F - 64.4 °F 78% 29.96 in 10.0 mi SSW 10.4 mph - N/A   Scattered Clouds
8:15 AM 71.6 °F - 64.4 °F 78% 29.96 in 10.0 mi SSW 9.2 mph - N/A   Mostly Cloudy
8:35 AM 71.6 °F - 64.4 °F 78% 29.96 in 10.0 mi South 8.1 mph - N/A   Mostly Cloudy
8:55 AM 71.6 °F - 64.4 °F 78% 29.96 in 10.0 mi SSW 9.2 mph - N/A   Scattered Clouds
9:15 AM 71.6 °F - 64.4 °F 78% 29.97 in 10.0 mi SSW 9.2 mph - N/A   Scattered Clouds
9:35 AM 71.6 °F - 64.4 °F 78% 29.97 in 10.0 mi SSW 12.7 mph 17.3 mph N/A   Scattered Clouds
9:55 AM 71.6 °F - 64.4 °F 78% 29.97 in 10.0 mi SSW 11.5 mph 17.3 mph N/A   Mostly Cloudy
10:15 AM 73.4 °F - 66.2 °F 78% 29.97 in 10.0 mi SSW 10.4 mph - N/A   Overcast
10:35 AM 73.4 °F - 66.2 °F 78% 29.98 in 10.0 mi SW 11.5 mph - N/A   Mostly Cloudy
10:55 AM 73.4 °F - 66.2 °F 78% 29.98 in 10.0 mi SSW 12.7 mph 19.6 mph N/A   Mostly Cloudy
11:15 AM 75.2 °F - 66.2 °F 73% 29.98 in 10.0 mi SSW 17.3 mph - N/A   Scattered Clouds
11:35 AM 77.0 °F - 66.2 °F 69% 29.98 in 10.0 mi SW 15.0 mph 19.6 mph N/A   Scattered Clouds
11:55 AM 78.8 °F - 68.0 °F 69% 29.97 in 10.0 mi SSW 11.5 mph 17.3 mph N/A   Scattered Clouds
12:15 PM 80.6 °F 83.2 °F 68.0 °F 65% 29.97 in 10.0 mi SW 16.1 mph 19.6 mph N/A   Clear
12:35 PM 80.6 °F 82.7 °F 66.2 °F 61% 29.97 in 10.0 mi SSW 19.6 mph 25.3 mph N/A   Scattered Clouds
12:55 PM 80.6 °F 83.2 °F 68.0 °F 65% 29.97 in 10.0 mi SSW 15.0 mph - N/A   Scattered Clouds
1:15 PM 80.6 °F 83.2 °F 68.0 °F 65% 29.96 in 10.0 mi SSW 17.3 mph 24.2 mph N/A   Scattered Clouds
1:35 PM 82.4 °F 84.6 °F 66.2 °F 58% 29.96 in 10.0 mi SSW 16.1 mph 23.0 mph N/A   Scattered Clouds
1:55 PM 80.6 °F 83.2 °F 68.0 °F 65% 29.96 in 10.0 mi SSW 16.1 mph - N/A   Scattered Clouds
2:15 PM 82.4 °F 85.4 °F 68.0 °F 62% 29.95 in 10.0 mi SSW 15.0 mph 23.0 mph N/A   Scattered Clouds
2:35 PM 80.6 °F 82.7 °F 66.2 °F 61% 29.95 in 10.0 mi SSW 18.4 mph 25.3 mph N/A   Scattered Clouds
2:55 PM 82.4 °F 85.4 °F 68.0 °F 62% 29.94 in 10.0 mi SSW 15.0 mph 20.7 mph N/A   Scattered Clouds
3:15 PM 80.6 °F 83.2 °F 68.0 °F 65% 29.94 in 10.0 mi SW 15.0 mph 19.6 mph N/A   Mostly Cloudy
4:15 PM 80.6 °F 83.2 °F 68.0 °F 65% 29.93 in 10.0 mi SSW 15.0 mph - N/A   Mostly Cloudy
4:35 PM 80.6 °F 83.9 °F 69.8 °F 70% 29.92 in 10.0 mi SSW 13.8 mph 17.3 mph N/A   Mostly Cloudy
4:55 PM 82.4 °F 85.4 °F 68.0 °F 62% 29.92 in 10.0 mi SSW 15.0 mph 21.9 mph N/A   Scattered Clouds
5:15 PM 80.6 °F 83.2 °F 68.0 °F 65% 29.91 in 10.0 mi SSW 15.0 mph 23.0 mph N/A   Scattered Clouds
5:35 PM 80.6 °F 83.2 °F 68.0 °F 65% 29.91 in 10.0 mi SSW 17.3 mph 24.2 mph N/A   Scattered Clouds
5:55 PM 78.8 °F - 68.0 °F 69% 29.91 in 10.0 mi South 15.0 mph 21.9 mph N/A   Mostly Cloudy
6:15 PM 78.8 °F - 68.0 °F 69% 29.92 in 10.0 mi SSW 12.7 mph - N/A   Mostly Cloudy
6:35 PM 78.8 °F - 68.0 °F 69% 29.93 in 10.0 mi South 15.0 mph 20.7 mph N/A   Scattered Clouds
6:55 PM 77.0 °F - 68.0 °F 74% 29.93 in 10.0 mi SSW 20.7 mph 26.5 mph N/A   Mostly Cloudy
7:15 PM 77.0 °F - 68.0 °F 74% 29.92 in 10.0 mi South 15.0 mph 20.7 mph N/A   Scattered Clouds
7:35 PM 77.0 °F - 68.0 °F 74% 29.93 in 10.0 mi SSW 15.0 mph 19.6 mph N/A   Scattered Clouds
7:55 PM 75.2 °F - 68.0 °F 78% 29.93 in 10.0 mi South 13.8 mph 17.3 mph N/A   Scattered Clouds
8:15 PM 73.4 °F - 68.0 °F 83% 29.95 in 10.0 mi SSW 11.5 mph - N/A   Scattered Clouds
8:35 PM 75.2 °F - 66.2 °F 73% 29.95 in 10.0 mi SSW 13.8 mph 18.4 mph N/A   Mostly Cloudy
8:55 PM 73.4 °F - 66.2 °F 78% 29.95 in 10.0 mi SSW 11.5 mph - N/A   Mostly Cloudy
9:15 PM 73.4 °F - 68.0 °F 83% 29.96 in 10.0 mi South 12.7 mph 16.1 mph N/A   Scattered Clouds
9:35 PM 71.6 °F - 68.0 °F 88% 29.96 in 10.0 mi South 11.5 mph - N/A   Scattered Clouds
9:55 PM 71.6 °F - 68.0 °F 88% 29.96 in 10.0 mi SSW 10.4 mph - N/A   Scattered Clouds
10:15 PM 71.6 °F - 68.0 °F 88% 29.96 in 10.0 mi South 9.2 mph - N/A   Scattered Clouds
10:35 PM 71.6 °F - 68.0 °F 88% 29.96 in 10.0 mi SSW 10.4 mph - N/A   Clear
10:55 PM 71.6 °F - 68.0 °F 88% 29.96 in 10.0 mi SSW 11.5 mph - N/A   Scattered Clouds
11:15 PM 71.6 °F - 68.0 °F 88% 29.97 in 10.0 mi SSW 9.2 mph - N/A   Scattered Clouds
11:35 PM 71.6 °F - 68.0 °F 88% 29.97 in 10.0 mi SSW 9.2 mph - N/A   Scattered Clouds
11:55 PM 71.6 °F - 68.0 °F 88% 29.97 in 7.0 mi SSW 6.9 mph - N/A   Scattered Clouds